Location: Kielce
(50.8833°N, 20.6167°E)
Time: 00:22:05
(UTC+02:00)

SR - Pass Details

Date: 22 April 2021
Orbit: 573 x 882 km, 66.7° (Epoch: 16 May)

Event Time Altitude Azimuth Distance (km) Brightness Sun altitude
Rises 12:05:35 0° 303° (WNW) 3,477 ? 51.0°
Reaches altitude 10° 12:09:03 10° 323° (NW) 2,549 ? 51.1°
Maximum altitude 12:12:51 17° 3° (N) 2,081 ? 51.2°
Drops below altitude 10° 12:16:37 10° 43° (NE) 2,523 ? 51.3°
Sets 12:20:02 0° 63° (ENE) 3,427 ? 51.3°
